This demonstration page uses our WeatherBlox Daily Observations layout. Learn more.

Left ArrowRight Arrow

39.51506, -84.39828

Hourly Observations for June 24, 2019

Temp ( °F °C ) Dew Point ( °F °C ) Humidity (%) Winds ( mph kmh ) Pressure ( in mb ) Visibility ( mi km ) Precip ( " mm )
12:15 am 00:15 Mostly Cloudy 69 20.4 67 19.3 93 93 S 6 9 29.84 1011 10 16 N/A
12:35 am 00:35 Cloudy 69 20.7 67 19.5 93 93 WSW 5 7 29.84 1011 10 16 N/A
12:55 am 00:55 Mostly Cloudy 69 20.4 67 19.5 95 95 N N/A 29.83 1010 10 16 N/A
1:15 am 01:15 Partly Cloudy 69 20.4 67 19.3 93 93 S 6 9 29.83 1010 10 16 N/A
1:35 am 01:35 Clear 70 20.9 67 19.2 90 90 S 7 11 29.81 1010 10 16 N/A
1:55 am 01:55 Clear 70 20.9 66 19.1 90 90 S 8 13 29.80 1009 10 16 N/A
2:15 am 02:15 Clear 69 20.8 66 19 90 90 SSW 7 11 29.80 1009 10 16 N/A
2:35 am 02:35 Clear 69 20.7 66 18.9 89 89 SSW 9 15 29.80 1009 10 16 N/A
2:55 am 02:55 Clear 69 20.6 66 18.8 89 89 SSW 9 15 29.79 1009 10 16 N/A
3:15 am 03:15 Clear 69 20.4 66 18.8 91 91 S 6 9 29.79 1009 10 16 N/A
3:35 am 03:35 Clear 68 20 66 18.7 92 92 S 7 11 29.78 1009 10 16 N/A
3:55 am 03:55 Clear 68 20 66 18.8 93 93 S 3 6 29.78 1009 10 16 N/A
4:15 am 04:15 Clear 69 20.4 66 18.9 91 91 S 8 13 29.78 1009 10 16 N/A
4:35 am 04:35 Partly Cloudy 69 20.3 66 18.9 92 92 S 7 11 29.78 1009 10 16 N/A
4:55 am 04:55 Partly Cloudy 68 20.2 66 18.9 92 92 S 6 9 29.79 1009 10 16 N/A
5:15 am 05:15 Partly Cloudy 68 20 66 18.9 93 93 SSW 3 6 29.78 1009 10 16 N/A
5:35 am 05:35 Cloudy 68 20 66 19 94 94 S 6 9 29.78 1009 10 16 N/A
5:55 am 05:55 Mostly Cloudy 68 19.8 66 18.8 94 94 SW 5 7 29.78 1008 7 11 N/A
6:15 am 06:15 Mostly Cloudy 67 19.6 66 18.8 95 95 SSW 5 7 29.79 1009 10 16 N/A
6:35 am 06:35 Mostly Cloudy 68 20.1 66 19.1 94 94 SSW 5 7 29.78 1009 10 16 N/A
6:55 am 06:55 Partly Cloudy 68 19.9 66 18.9 94 94 S 5 7 29.78 1009 10 16 N/A
7:15 am 07:15 Partly Cloudy 69 20.3 66 19.1 93 93 S 5 7 29.78 1009 10 16 N/A
7:35 am 07:35 Mostly Cloudy 70 20.9 67 19.5 92 92 S 6 9 29.78 1009 10 16 N/A
7:55 am 07:55 Partly Cloudy 71 21.5 67 19.7 90 90 S 9 15 29.79 1009 10 16 N/A
8:15 am 08:15 Sunny 72 22.1 68 19.8 87 87 SSW 8 13 29.78 1008 10 16 N/A
8:35 am 08:35 Mostly Cloudy with Mist and Fog 72 22.4 68 19.9 86 86 SSW 12 19 29.79 1009 5 8 N/A
8:55 am 08:55 Cloudy 72 22.4 67 19.7 85 85 SSW 10 17 29.79 1009 10 16 N/A
9:15 am 09:15 Mostly Cloudy 74 23.1 68 20 83 83 S 10 17 29.79 1009 10 16 N/A
9:35 am 09:35 Mostly Cloudy 73 22.9 68 20 84 84 S 10 17 29.79 1009 10 16 N/A
9:55 am 09:55 Mostly Cloudy 75 23.7 69 20.3 81 81 SSW 9 15 29.79 1009 10 16 N/A
10:15 am 10:15 Partly Cloudy 77 24.8 69 20.4 77 77 SW 10 17 29.77 1008 10 16 N/A
10:35 am 10:35 Partly Cloudy 77 25 69 20.6 77 77 SW 12 19 29.78 1009 10 16 N/A
10:55 am 10:55 Partly Cloudy 77 25.1 69 20.6 76 76 SSW 9 15 29.78 1009 10 16 N/A
11:15 am 11:15 Mostly Cloudy 78 25.8 69 20.8 74 74 SSW 12 19 29.78 1009 10 16 N/A
11:35 am 11:35 Mostly Cloudy 77 24.8 68 20.2 76 76 SW 12 19 29.78 1009 10 16 N/A
11:55 am 11:55 Mostly Cloudy 77 24.8 68 20 75 75 SW 9 15 29.78 1009 10 16 N/A
12:15 pm 12:15 Mostly Cloudy 77 24.8 68 20.1 75 75 SW 9 15 29.77 1008 10 16 N/A
12:35 pm 12:35 undefined 77 25 68 20 74 74 undefined N/A N/A N/A N/A
12:55 pm 12:55 Cloudy 77 25 68 20 74 74 undefined N/A N/A 10 16 N/A
1:15 pm 13:15 Mostly Cloudy 78 25.7 69 20.7 74 74 SW 13 20 29.75 1008 10 16 N/A
1:35 pm 13:35 Cloudy with Thunderstorms 77 25 69 20.3 75 75 SW 12 19 29.75 1008 N/A N/A
1:55 pm 13:55 Cloudy 76 24.6 68 20.2 77 77 SW 9 15 29.76 1008 N/A N/A
2:15 pm 14:15 Cloudy with Light Rain 76 24.3 69 20.5 79 79 SSW 8 13 29.75 1008 10 16 N/A
2:35 pm 14:35 Cloudy with Rain 74 23.4 70 20.9 86 86 S 8 13 29.75 1007 10 16 N/A
2:55 pm 14:55 Cloudy with Light Rain 74 23.5 69 20.8 85 85 SW 7 11 29.73 1007 10 16 N/A
3:15 pm 15:15 Cloudy 75 23.7 70 20.9 84 84 WSW 5 7 29.72 1006 10 16 N/A
3:35 pm 15:35 Cloudy 74 23.6 69 20.8 84 84 N N/A 29.71 1006 10 16 N/A
3:55 pm 15:55 Cloudy with Light Rain 74 23.6 70 21 85 85 NW 5 7 29.70 1006 10 16 N/A
4:15 pm 16:15 Cloudy with Heavy Rain 71 21.4 68 20.2 93 93 WSW 7 11 29.72 1006 2 3 0.17 4.32
4:35 pm 16:35 Cloudy with Light Rain 70 21.2 68 20.1 93 93 WSW 8 13 29.72 1006 7 11 0.18 4.57
4:55 pm 16:55 Cloudy with Light Rain 71 21.4 69 20.4 94 94 W 7 11 29.71 1006 7 11 0.19 4.83
5:15 pm 17:15 Mostly Cloudy with Light Rain 71 21.5 69 20.3 93 93 WSW 5 7 29.70 1006 10 16 0.01 0.25
5:35 pm 17:35 Mostly Cloudy 72 22.3 70 20.9 92 92 W 7 11 29.70 1006 10 16 0.01 0.25
5:55 pm 17:55 Mostly Cloudy 72 22.1 68 20.1 88 88 NW 9 15 29.70 1006 10 16 0.01 0.25
6:15 pm 18:15 Partly Cloudy 73 23 69 20.5 86 86 WNW 8 13 29.71 1006 10 16 N/A
6:35 pm 18:35 Partly Cloudy 73 23 68 19.8 82 82 W 8 13 29.71 1006 10 16 N/A
6:55 pm 18:55 Partly Cloudy 74 23.1 67 19.5 80 80 W 8 13 29.72 1006 10 16 N/A
7:15 pm 19:15 Mostly Cloudy 73 22.5 67 19.3 82 82 W 6 9 29.74 1007 10 16 N/A
7:35 pm 19:35 Partly Cloudy 74 23.2 67 19.2 78 78 WSW 8 13 29.75 1007 10 16 N/A
7:55 pm 19:55 Sunny 73 23 67 19.3 80 80 SW 8 13 29.76 1008 10 16 N/A
8:15 pm 20:15 Sunny 73 22.7 67 19.2 81 81 SW 7 11 29.76 1008 10 16 N/A
8:35 pm 20:35 Sunny 72 22.4 67 19.3 83 83 SSW 8 13 29.77 1008 10 16 N/A
8:55 pm 20:55 Sunny 71 21.7 67 19.4 87 87 SSW 7 11 29.77 1008 10 16 N/A
9:15 pm 21:15 Clear 71 21.8 67 19.2 85 85 SSW 9 15 29.77 1008 10 16 N/A
9:35 pm 21:35 Clear 71 21.4 66 19.1 87 87 SSW 8 13 29.78 1009 10 16 N/A
9:55 pm 21:55 Mostly Cloudy 71 21.6 67 19.3 87 87 SSW 7 11 29.78 1008 10 16 N/A
10:15 pm 22:15 Clear 69 20.7 66 19.1 91 91 SW 7 11 29.79 1009 10 16 N/A
10:35 pm 22:35 Clear 69 20.3 66 19 92 92 SSW 6 9 29.79 1009 10 16 N/A
10:55 pm 22:55 Clear 68 19.8 66 19 95 95 SW 5 7 29.81 1009 10 16 N/A
11:15 pm 23:15 Clear 67 19.5 66 18.8 96 96 SW 5 7 29.82 1010 10 16 N/A
11:35 pm 23:35 Partly Cloudy 67 19.4 66 18.9 97 97 SW 6 9 29.82 1010 10 16 N/A
11:55 pm 23:55 Partly Cloudy 68 20.2 67 19.3 95 95 SSW 3 6 29.81 1010 10 16 N/A

Powered by AerisWeather